CW3363 Weather Reports


Display with metric or nautical units.
time (UTC)temp
F
wind
direction
speed
MPH
gust
MPH
rain 1hr
in
rain 24hr
in
rain mn
in
humidity
%
barometer
mb
20260507232336 76 42 0.0 4.0 0.00 0.00 0.00 71 1014.2
20260507231840 76 64 0.0 4.0 0.00 0.00 0.00 71 1013.8
20260507231323 76 7 2.0 4.0 0.00 0.00 0.00 71 1013.8
20260507230830 76 84 1.0 4.0 0.00 0.00 0.00 71 1013.8
20260507230354 77 80 2.0 4.0 0.00 0.00 0.00 70 1013.8
20260507225836 77 352 1.0 3.0 0.00 0.00 0.00 70 1013.8
20260507225341 77 89 1.0 6.0 0.00 0.00 0.00 71 1013.8
20260507224824 77 9 1.0 6.0 0.00 0.00 0.00 70 1013.4
20260507224329 77 6 1.0 4.0 0.00 0.00 0.00 70 1013.4
20260507223832 77 11 1.0 4.0 0.00 0.00 0.00 71 1013.4
20260507223340 77 307 2.0 5.0 0.00 0.00 0.00 70 1013.5
20260507222824 77 80 1.0 5.0 0.00 0.00 0.00 70 1013.5
20260507222329 78 319 1.0 5.0 0.00 0.00 0.00 70 1013.5
20260507221833 78 79 1.0 5.0 0.00 0.00 0.00 70 1013.8
20260507221337 78 355 1.0 3.0 0.00 0.00 0.00 70 1013.8
20260507220826 78 9 2.0 4.0 0.00 0.00 0.00 70 1013.8
20260507220330 78 76 2.0 6.0 0.00 0.00 0.00 71 1013.8
20260507215838 78 72 2.0 6.0 0.00 0.00 0.00 70 1013.8
20260507215325 78 53 1.0 5.0 0.00 0.00 0.00 70 1013.8
20260507214831 78 12 1.0 5.0 0.00 0.00 0.00 69 1014.0
20260507214333 79 323 3.0 5.0 0.00 0.00 0.00 70 1014.0
20260507213823 79 11 3.0 5.0 0.00 0.00 0.00 70 1014.0
20260507213327 78 96 2.0 5.0 0.00 0.00 0.00 71 1014.0
20260507212831 78 342 3.0 6.0 0.00 0.00 0.00 71 1014.0
20260507212335 78 336 3.0 6.0 0.00 0.00 0.00 69 1014.0
20260507211858 79 329 2.0 6.0 0.00 0.00 0.00 68 1014.2
20260507211340 79 94 3.0 6.0 0.00 0.00 0.00 69 1014.2
20260507210823 79 8 4.0 6.0 0.00 0.00 0.00 69 1014.2
20260507210326 78 86 2.0 6.0 0.00 0.00 0.00 69 1014.3
20260507205830 79 59 1.0 6.0 0.00 0.00 0.00 71 1014.3
20260507205333 78 29 2.0 4.0 0.00 0.00 0.00 71 1014.3
20260507204838 78 59 1.0 9.0 0.00 0.00 0.00 71 1014.3
20260507204325 78 283 3.0 9.0 0.00 0.00 0.00 70 1014.3
20260507203830 78 97 3.0 7.0 0.00 0.00 0.00 70 1014.3
20260507203337 78 72 2.0 9.0 0.00 0.00 0.00 70 1014.5
20260507202900 78 295 2.0 9.0 0.00 0.00 0.00 71 1014.5
20260507202322 78 16 3.0 7.0 0.00 0.00 0.00 71 1014.5
20260507201827 77 79 2.0 5.0 0.00 0.00 0.00 71 1014.8
20260507201351 77 334 1.0 6.0 0.00 0.00 0.00 73 1014.8
20260507200834 76 70 3.0 6.0 0.00 0.00 0.00 72 1014.8
20260507200337 76 278 1.0 6.0 0.00 0.00 0.00 73 1014.6
20260507195821 76 70 2.0 7.0 0.00 0.00 0.00 73 1014.6
20260507195325 76 76 4.0 7.0 0.00 0.00 0.00 73 1014.6
20260507194832 76 53 1.0 6.0 0.00 0.00 0.00 73 1014.8
20260507194335 76 324 4.0 6.0 0.00 0.00 0.00 73 1014.8
20260507193823 75 58 2.0 5.0 0.00 0.00 0.00 75 1014.8
20260507193348 74 89 1.0 6.0 0.00 0.00 0.00 75 1015.4
20260507192830 74 31 2.0 6.0 0.00 0.00 0.00 75 1015.4
20260507192333 74 329 3.0 6.0 0.00 0.00 0.00 74 1015.4
20260507191836 74 10 3.0 6.0 0.00 0.00 0.00 74 1015.8
20260507191323 73 20 2.0 6.0 0.00 0.00 0.00 76 1015.8
20260507190831 73 1 1.0 6.0 0.00 0.00 0.00 77 1015.8
20260507190334 72 68 3.0 9.0 0.00 0.00 0.00 76 1015.9
20260507185838 72 323 4.0 9.0 0.00 0.00 0.00 76 1015.9
20260507185322 72 9 2.0 5.0 0.00 0.00 0.00 76 1015.9
20260507184829 73 21 3.0 6.0 0.00 0.00 0.00 76 1015.9
20260507184333 72 33 2.0 6.0 0.00 0.00 0.00 77 1015.9
20260507183824 72 357 4.0 10.0 0.00 0.00 0.00 77 1015.9
20260507183328 71 31 4.0 10.0 0.00 0.00 0.00 77 1016.2
20260507182854 71 54 3.0 6.0 0.00 0.00 0.00 78 1016.2
20260507182340 71 324 3.0 9.0 0.00 0.00 0.00 78 1016.2
20260507181824 71 42 1.0 9.0 0.00 0.00 0.00 78 1016.0
20260507181331 71 337 2.0 9.0 0.00 0.00 0.00 78 1016.0
20260507180834 70 331 3.0 9.0 0.00 0.00 0.00 78 1016.0
20260507180358 70 99 4.0 9.0 0.00 0.00 0.00 78 1016.4
20260507175841 70 307 3.0 7.0 0.00 0.00 0.00 78 1016.4
20260507175326 70 49 2.0 7.0 0.00 0.00 0.00 79 1016.4
20260507174832 69 36 1.0 5.0 0.00 0.00 0.00 80 1016.6
20260507174337 69 16 3.0 11.0 0.00 0.00 0.00 80 1016.6
20260507173828 69 77 3.0 11.0 0.00 0.00 0.00 80 1016.6
20260507173333 69 358 3.0 6.0 0.00 0.00 0.00 80 1016.7
20260507172858 68 92 1.0 7.0 0.00 0.00 0.00 80 1016.7
20260507172341 69 9 3.0 7.0 0.00 0.00 0.00 80 1016.7
20260507171825 69 353 2.0 5.0 0.00 0.00 0.00 81 1016.9
20260507171328 68 53 2.0 7.0 0.00 0.00 0.00 81 1016.9
20260507170831 68 322 2.0 7.0 0.00 0.00 0.00 80 1016.9
20260507170356 68 358 1.0 6.0 0.00 0.00 0.00 81 1016.9
20260507165836 68 319 3.0 4.0 0.00 0.00 0.00 81 1016.9
20260507165324 68 6 2.0 5.0 0.00 0.00 0.00 81 1016.9
20260507164848 68 80 3.0 5.0 0.00 0.00 0.00 81 1016.7
20260507164331 68 338 2.0 6.0 0.00 0.00 0.00 81 1016.7
20260507163835 68 325 4.0 6.0 0.00 0.00 0.00 80 1016.7
20260507163326 68 85 3.0 6.0 0.00 0.00 0.00 81 1016.4
20260507162830 68 321 3.0 5.0 0.00 0.00 0.00 81 1016.4
20260507162334 67 10 2.0 6.0 0.00 0.00 0.00 81 1016.4
20260507161836 67 280 2.0 6.0 0.00 0.00 0.00 83 1016.0
20260507161340 66 47 3.0 6.0 0.00 0.00 0.00 83 1016.0
20260507160824 66 35 1.0 9.0 0.00 0.00 0.00 84 1016.0
20260507160350 65 36 2.0 9.0 0.00 0.00 0.00 83 1016.4
20260507155853 65 85 2.0 9.0 0.00 0.00 0.00 84 1016.4
20260507155337 65 80 2.0 10.0 0.00 0.00 0.00 84 1016.4
20260507154840 64 17 3.0 10.0 0.00 0.00 0.00 84 1016.5
20260507154324 64 66 3.0 9.0 0.00 0.00 0.00 84 1016.5
20260507153827 64 342 3.0 6.0 0.00 0.00 0.00 85 1016.5
20260507153353 64 56 3.0 6.0 0.00 0.00 0.00 85 1016.5
20260507152836 64 68 2.0 5.0 0.00 0.00 0.00 85 1016.5
20260507152324 64 215 1.0 6.0 0.00 0.00 0.00 85 1016.5
20260507151828 64 109 1.0 6.0 0.00 0.00 0.00 86 1016.5
20260507151334 64 58 2.0 5.0 0.00 0.00 0.00 86 1016.5
20260507150837 64 347 2.0 4.0 0.00 0.00 0.00 86 1016.5
20260507150401 64 104 1.0 7.0 0.00 0.00 0.00 86 1016.8
20260507145822 64 49 2.0 9.0 0.00 0.00 0.00 86 1016.8
20260507145346 64 44 2.0 9.0 0.00 0.00 0.00 86 1016.8
20260507144849 64 76 1.0 10.0 0.00 0.00 0.00 87 1016.5
20260507144333 63 68 2.0 10.0 0.00 0.00 0.00 86 1016.5
20260507143835 64 79 2.0 7.0 0.00 0.00 0.00 86 1016.5
20260507143339 64 14 2.0 6.0 0.00 0.00 0.00 86 1015.9
20260507142843 64 142 2.0 9.0 0.00 0.00 0.00 86 1015.9
20260507142329 64 360 1.0 11.0 0.00 0.00 0.00 86 1015.9
20260507141834 64 71 2.0 11.0 0.00 0.00 0.00 86 1015.8
20260507141358 64 240 2.0 6.0 0.00 0.00 0.00 86 1015.8
20260507140824 64 64 2.0 6.0 0.00 0.00 0.00 86 1015.8
20260507140328 63 47 2.0 9.0 0.00 0.00 0.00 87 1016.0
20260507135850 63 305 4.0 9.0 0.00 0.00 0.00 87 1016.0
20260507135334 63 355 3.0 9.0 0.00 0.00 0.00 87 1016.0
20260507134837 63 43 3.0 9.0 0.00 0.00 0.00 87 1016.5
20260507134401 63 240 1.0 7.0 0.00 0.00 0.00 88 1016.5
20260507133825 63 60 3.0 7.0 0.00 0.00 0.00 88 1016.5
20260507133329 63 10 4.0 6.0 0.00 0.00 0.00 89 1016.7
20260507132832 63 347 3.0 7.0 0.00 0.00 0.00 89 1016.7
20260507132341 63 295 2.0 7.0 0.00 0.00 0.00 89 1016.7
20260507131824 63 22 2.0 4.0 0.00 0.00 0.00 89 1016.6
20260507131328 63 57 2.0 5.0 0.00 0.00 0.00 89 1016.6
20260507130853 63 74 1.0 5.0 0.00 0.00 0.00 88 1016.6
20260507130336 63 334 2.0 9.0 0.00 0.00 0.00 88 1016.4
20260507125823 63 344 3.0 9.0 0.00 0.00 0.00 88 1016.4
20260507125327 64 87 1.0 6.0 0.00 0.00 0.00 88 1016.4
20260507124852 64 343 2.0 6.0 0.00 0.00 0.00 88 1015.9
20260507124337 64 331 2.0 6.0 0.00 0.00 0.00 88 1015.9
20260507123840 64 360 2.0 6.0 0.00 0.00 0.00 88 1015.9
20260507123324 64 299 2.0 8.0 0.00 0.00 0.00 88 1015.5
20260507122828 64 314 2.0 10.0 0.00 0.00 0.00 88 1015.5
20260507122352 64 330 1.0 10.0 0.00 0.00 0.00 88 1015.5
20260507121836 64 351 2.0 5.0 0.00 0.00 0.00 88 1015.3
20260507121339 65 35 2.0 5.0 0.00 0.00 0.00 88 1015.3
20260507120824 65 331 1.0 5.0 0.00 0.00 0.00 88 1015.3
20260507120328 65 88 2.0 5.0 0.00 0.00 0.00 88 1015.0
20260507115834 65 48 2.0 5.0 0.00 0.00 0.00 88 1015.0
20260507115321 65 357 2.0 5.0 0.00 0.00 0.00 88 1015.0
20260507114846 65 2 1.0 5.0 0.00 0.00 0.00 88 1014.9
20260507114349 65 36 3.0 5.0 0.00 0.00 0.00 88 1014.9
20260507113855 65 352 2.0 6.0 0.00 0.00 0.00 88 1014.9
20260507113337 65 355 3.0 6.0 0.00 0.00 0.00 87 1014.4
20260507112820 65 15 2.0 4.0 0.00 0.00 0.00 88 1014.4
20260507112328 66 76 1.0 4.0 0.00 0.00 0.00 87 1014.4
20260507111835 66 54 2.0 4.0 0.00 0.00 0.00 87 1014.6
20260507111338 66 30 1.0 4.0 0.00 0.00 0.00 88 1014.6
20260507110821 66 44 1.0 3.0 0.00 0.00 0.00 88 1014.6
20260507110329 66 339 1.0 3.0 0.00 0.00 0.00 88 1014.3
20260507105832 66 310 2.0 3.0 0.00 0.00 0.00 88 1014.3
20260507105339 66 56 1.0 4.0 0.00 0.00 0.00 87 1014.3
20260507104828 66 9 1.0 4.0 0.00 0.00 0.00 87 1013.9
20260507104351 66 9 1.0 2.0 0.00 0.00 0.00 87 1013.9
20260507103839 66 2 0.0 1.0 0.00 0.00 0.00 88 1013.9
20260507103322 66 2 0.0 2.0 0.00 0.00 0.00 88 1014.2
20260507102827 66 94 1.0 4.0 0.00 0.00 0.00 88 1014.2
20260507102332 66 38 2.0 4.0 0.00 0.00 0.00 88 1014.2
20260507101836 66 66 0.0 3.0 0.00 0.00 0.00 88 1013.8
20260507101324 66 54 2.0 4.0 0.00 0.00 0.00 88 1013.8
20260507100831 66 55 0.0 4.0 0.00 0.00 0.00 88 1013.8
20260507100336 66 62 1.0 3.0 0.00 0.00 0.00 88 1013.8
20260507095839 66 77 2.0 5.0 0.00 0.00 0.00 88 1013.8
20260507095327 66 59 1.0 5.0 0.00 0.00 0.00 87 1013.8
20260507094851 66 59 3.0 5.0 0.00 0.00 0.00 87 1013.7
20260507094335 66 67 2.0 4.0 0.00 0.00 0.00 88 1013.7
20260507093841 66 7 1.0 3.0 0.00 0.00 0.00 87 1013.7
20260507093325 66 59 1.0 4.0 0.00 0.00 0.00 88 1013.3
20260507092828 66 34 1.0 5.0 0.00 0.00 0.00 87 1013.3
20260507092332 66 54 0.0 5.0 0.00 0.00 0.00 87 1013.3
20260507091836 66 34 2.0 5.0 0.00 0.00 0.00 87 1013.4
20260507091323 66 10 1.0 4.0 0.00 0.00 0.00 87 1013.4
20260507090827 66 63 1.0 6.0 0.00 0.00 0.00 87 1013.4
20260507090331 66 25 2.0 6.0 0.00 0.00 0.00 87 1013.4
20260507085834 66 51 1.0 3.0 0.00 0.00 0.00 87 1013.4
20260507085341 66 64 1.0 5.0 0.00 0.00 0.00 87 1013.4
20260507084825 66 86 3.0 5.0 0.00 0.00 0.00 87 1013.7
20260507084331 66 352 1.0 4.0 0.00 0.00 0.00 87 1013.7
20260507083839 67 64 2.0 4.0 0.00 0.00 0.00 87 1013.7
20260507083324 67 321 1.0 4.0 0.00 0.00 0.00 87 1013.3
20260507082826 66 62 1.0 4.0 0.00 0.00 0.00 87 1013.3
20260507082330 66 338 2.0 6.0 0.00 0.00 0.00 87 1013.3
20260507081838 67 321 3.0 6.0 0.00 0.00 0.00 86 1013.4
20260507081341 67 319 1.0 4.0 0.00 0.00 0.00 87 1013.4
20260507080825 67 342 2.0 4.0 0.00 0.00 0.00 86 1013.4
20260507080332 67 326 1.0 4.0 0.00 0.00 0.00 86 1013.4
20260507075855 67 332 0.0 5.0 0.00 0.00 0.00 86 1013.4
20260507075337 67 52 1.0 5.0 0.00 0.00 0.00 86 1013.4
20260507074823 67 57 1.0 5.0 0.00 0.00 0.00 86 1013.8
20260507074330 67 30 0.0 5.0 0.00 0.00 0.00 86 1013.8
20260507073837 67 15 1.0 5.0 0.00 0.00 0.00 86 1013.8
20260507073323 67 333 3.0 5.0 0.00 0.00 0.00 86 1013.8
20260507072848 67 330 1.0 4.0 0.00 0.00 0.00 86 1013.8
20260507072330 67 10 1.0 5.0 0.00 0.00 0.00 86 1013.8
20260507071837 67 9 1.0 5.0 0.00 0.00 0.00 85 1014.1
20260507071323 67 333 1.0 5.0 0.00 0.00 0.00 85 1014.1
20260507070824 67 10 2.0 8.0 0.00 0.00 0.00 85 1014.1
20260507070328 67 9 1.0 8.0 0.00 0.00 0.00 85 1013.8
20260507065831 67 322 3.0 7.0 0.00 0.00 0.00 85 1013.8
20260507065355 67 4 1.0 5.0 0.00 0.00 0.00 85 1013.8
20260507064837 67 285 2.0 6.0 0.00 0.00 0.00 85 1014.0
20260507064323 67 53 3.0 6.0 0.00 0.00 0.00 85 1014.0
20260507063826 67 335 2.0 6.0 0.00 0.00 0.00 85 1014.0
20260507063351 67 295 3.0 5.0 0.00 0.00 0.00 85 1013.9
20260507062839 67 338 2.0 5.0 0.00 0.00 0.00 85 1013.9
20260507062324 67 9 2.0 7.0 0.00 0.00 0.00 84 1013.9
20260507061827 67 13 3.0 7.0 0.00 0.00 0.00 84 1013.5
20260507061331 67 9 2.0 5.0 0.00 0.00 0.00 84 1013.5
20260507060834 68 9 2.0 5.0 0.00 0.00 0.00 84 1013.5
20260507060339 68 113 1.0 7.0 0.00 0.00 0.00 84 1013.6
20260507055822 68 4 3.0 7.0 0.00 0.00 0.00 84 1013.6
20260507055326 68 348 3.0 5.0 0.00 0.00 0.00 83 1013.6
20260507054833 68 1 3.0 5.0 0.00 0.00 0.00 84 1013.6
20260507054337 68 359 2.0 5.0 0.00 0.00 0.00 84 1013.6
20260507053902 68 9 1.0 5.0 0.00 0.00 0.00 84 1013.6
20260507053329 69 324 2.0 5.0 0.00 0.00 0.00 84 1013.4
20260507052834 69 343 0.0 6.0 0.00 0.00 0.00 84 1013.4
20260507052357 69 49 1.0 6.0 0.00 0.00 0.00 83 1013.4
20260507051841 69 323 2.0 5.0 0.00 0.00 0.00 83 1013.4
20260507051325 69 338 1.0 6.0 0.00 0.00 0.00 83 1013.4
20260507050831 69 334 3.0 6.0 0.00 0.00 0.00 83 1013.4
20260507050335 69 11 1.0 5.0 0.00 0.00 0.00 84 1013.4
20260507045838 69 340 3.0 6.0 0.00 0.00 0.00 83 1013.4
20260507045324 69 10 4.0 6.0 0.00 0.00 0.00 83 1013.4
20260507044828 69 9 1.0 7.0 0.00 0.00 0.00 83 1013.3
20260507044334 70 37 1.0 7.0 0.00 0.00 0.00 83 1013.3
20260507043823 70 343 1.0 6.0 0.00 0.00 0.00 83 1013.3
20260507043346 70 336 3.0 4.0 0.00 0.00 0.00 83 1013.3
20260507042830 70 340 1.0 3.0 0.00 0.00 0.00 83 1013.3
20260507042334 70 6 0.0 6.0 0.00 0.00 0.00 83 1013.3
20260507041838 70 2 2.0 4.0 0.00 0.00 0.00 83 1013.3
20260507041322 70 342 2.0 5.0 0.00 0.00 0.00 83 1013.3
20260507040829 70 358 1.0 10.0 0.00 0.00 0.00 83 1013.3
20260507040354 70 343 3.0 10.0 0.00 0.00 0.00 83 1013.3
20260507035859 70 311 1.0 13.0 0.00 0.00 0.00 83 1013.3
20260507035322 70 314 3.0 13.0 0.00 0.00 0.00 83 1013.3
20260507034827 71 14 3.0 9.0 0.00 0.00 0.00 83 1013.2
20260507034331 71 352 2.0 9.0 0.00 0.00 0.00 83 1013.2
20260507033835 71 6 3.0 9.0 0.00 0.00 0.00 83 1013.2
20260507033359 71 9 3.0 9.0 0.00 0.00 0.00 83 1012.8
20260507032827 71 319 2.0 7.0 0.00 0.00 0.00 83 1012.8
20260507032331 71 338 4.0 7.0 0.00 0.00 0.00 83 1012.8
20260507031835 71 331 2.0 8.0 0.00 0.00 0.00 83 1012.4
20260507031339 72 293 2.0 9.0 0.00 0.00 0.00 83 1012.4
20260507030823 72 346 2.0 9.0 0.00 0.00 0.00 83 1012.4
20260507030326 72 10 3.0 6.0 0.00 0.00 0.00 83 1012.3
20260507025830 72 334 0.0 7.0 0.00 0.00 0.00 83 1012.3
20260507025337 72 37 2.0 7.0 0.00 0.00 0.00 83 1012.3
20260507024825 72 15 1.0 5.0 0.00 0.00 0.00 83 1012.0
20260507024349 73 4 2.0 6.0 0.00 0.00 0.00 83 1012.0
20260507023834 73 326 2.0 11.0 0.00 0.00 0.00 84 1012.0
20260507023338 73 10 3.0 11.0 0.00 0.00 0.00 84 1011.7
20260507022846 73 345 1.0 8.0 0.00 0.00 0.00 83 1011.7
20260507022336 73 21 2.0 4.0 0.00 0.00 0.00 84 1011.7
20260507021841 73 338 1.0 4.0 0.00 0.00 0.00 84 1011.2
20260507021325 73 315 2.0 5.0 0.00 0.00 0.00 84 1011.2
20260507020848 73 9 2.0 4.0 0.00 0.00 0.00 84 1011.2
20260507020334 74 11 2.0 7.0 0.00 0.00 0.00 84 1011.1
20260507015837 74 350 1.0 7.0 0.00 0.00 0.00 84 1011.1
20260507015325 74 290 0.0 5.0 0.00 0.00 0.00 84 1011.1
20260507014832 74 316 2.0 5.0 0.00 0.00 0.00 84 1010.8
20260507014335 74 319 3.0 6.0 0.00 0.00 0.00 83 1010.8
20260507013841 74 355 2.0 6.0 0.00 0.00 0.00 83 1010.8
20260507013323 74 99 2.0 5.0 0.00 0.00 0.00 84 1010.6
20260507012825 74 344 2.0 8.0 0.00 0.00 0.00 84 1010.6
20260507012329 74 330 3.0 8.0 0.00 0.00 0.00 83 1010.6
20260507011838 74 352 1.0 5.0 0.00 0.00 0.00 83 1010.3
20260507011403 75 333 2.0 5.0 0.00 0.00 0.00 83 1010.3
20260507010825 75 11 2.0 6.0 0.00 0.00 0.00 83 1010.3
20260507010330 75 357 3.0 9.0 0.00 0.00 0.00 84 1009.8
20260507005835 75 346 2.0 12.0 0.00 0.00 0.00 84 1009.8
20260507005322 75 307 3.0 12.0 0.00 0.00 0.00 84 1009.8
20260507004831 76 312 5.0 11.0 0.00 0.00 0.00 84 1009.7
20260507004337 76 345 4.0 11.0 0.00 0.00 0.00 84 1009.7
20260507003843 76 342 3.0 12.0 0.00 0.00 0.00 84 1009.7
20260507003327 77 322 4.0 12.0 0.00 0.00 0.00 84 1009.5
20260507002834 77 82 3.0 10.0 0.00 0.00 0.00 84 1009.5
20260507002323 77 318 3.0 10.0 0.00 0.00 0.00 83 1009.5
20260507001829 78 37 4.0 11.0 0.00 0.00 0.00 82 1009.1
20260507001335 80 49 2.0 14.0 0.00 0.00 0.00 83 1009.1
20260507000840 81 324 8.0 14.0 0.00 0.00 0.00 81 1009.1
20260507000328 84 305 0.0 3.0 0.00 0.00 0.00 84 1008.9
20260506235831 84 306 0.0 4.0 0.00 0.00 0.00 84 1008.9
20260506235338 84 306 2.0 4.0 0.00 0.00 0.00 83 1008.9
20260506234824 84 305 0.0 2.0 0.00 0.00 0.00 83 1008.8
20260506234332 84 306 1.0 2.0 0.00 0.00 0.00 83 1008.8
20260506233839 84 306 0.0 2.0 0.00 0.00 0.00 83 1008.8
20260506233329 84 306 0.0 2.0 0.00 0.00 0.00 83 1008.6
20260506232835 84 306 0.0 2.0 0.00 0.00 0.00 83 1008.6